This demonstration page uses our WeatherBlox Daily Observations layout. Learn more.

Hourly Observations for October 5, 2020

Temp ( °F °C ) Dew Point ( °F °C ) Humidity (%) Winds ( mph kmh ) Pressure ( in mb ) Visibility ( mi km ) Precip ( " mm )
12:53 am 00:53 Clear 50 10 32 0 50 50 VRB 5 7 29.86 1011 10 16.0934 0 0
1:53 am 01:53 Clear 46 7.8 32 0 58 58 NW 3 6 29.87 1011 10 16.0934 0 0
2:53 am 02:53 Clear 42 5.6 31 -0.6 65 65 Calm 29.87 1012 10 16.0934 0 0
3:53 am 03:53 Clear 47 8.3 30 -1.1 52 52 NNW 7 11 29.86 1011 10 16.0934 0 0
4:53 am 04:53 Clear 48 8.9 29 -1.7 48 48 NW 8 13 29.87 1011 10 16.0934 0 0
5:53 am 05:53 Clear 47 8.3 28 -2.2 48 48 NW 8 13 29.9 1013 10 16.0934 0 0
6:53 am 06:53 Clear 45 7.2 27 -2.8 49 49 NW 7 11 29.94 1014 10 16.0934 0 0
7:53 am 07:53 Sunny 50 10 28 -2.2 43 43 NW 8 13 29.96 1015 7 11.26538 0 0
8:53 am 08:53 Sunny 59 15 29 -1.7 32 32 WNW 13 20 29.97 1015 8 12.87472 0 0
9:53 am 09:53 Sunny 67 19.4 30 -1.1 25 25 W 14 22 29.97 1015 7 11.26538 0 0
10:53 am 10:53 Sunny 77 25 31 -0.6 18 18 NW 18 30 29.97 1015 9 14.48406 0 0
11:53 am 11:53 Sunny with Light Rain 79 26.1 33 0.6 19 19 NW 20 31 29.99 1016 10 16.0934 0.001 0.001
12:53 pm 12:53 Sunny with Light Rain 79 26.1 33 0.6 19 19 NW 18 30 29.99 1016 10 16.0934 0.001 0.001
1:53 pm 13:53 Sunny 80 26.7 32 0 17 17 NW 21 33 29.98 1015 10 16.0934 0.001 0.001
2:53 pm 14:53 Sunny 80 26.7 33 0.6 18 18 NW 17 28 29.99 1016 10 16.0934 0 0
3:53 pm 15:53 Sunny 79 26.1 34 1.1 20 20 NW 17 28 29.99 1016 10 16.0934 0 0
4:53 pm 16:53 Sunny 78 25.6 34 1.1 20 20 NNW 14 22 30 1016 10 16.0934 0 0
5:53 pm 17:53 Sunny 73 22.8 35 1.7 25 25 N 9 15 30.02 1017 10 16.0934 0 0
6:53 pm 18:53 Clear 63 17.2 35 1.7 35 35 N 7 11 30.07 1018 10 16.0934 0 0
7:53 pm 19:53 Clear 56 13.3 35 1.7 46 46 NNE 8 13 30.09 1019 10 16.0934 0 0
9:53 pm 21:53 Clear 50 10 34 1.1 54 54 NNE 6 9 30.08 1019 10 16.0934 0 0
10:53 pm 22:53 Clear 47 8.3 34 1.1 61 61 Calm 30.08 1019 10 16.0934 0 0
11:53 pm 23:53 Clear 41 5 33 0.6 73 73 NNW 3 6 30.09 1019 10 16.0934 0 0

Powered by AerisWeather